This is the latest recevied weather packets stored in our database for station/object AI5BL. If no packets are shown the sender has not sent any weather packets the latest 10 day(s).
| Time | Temp. | Humidity | Pressure | Rain* | Wind** | Luminosity | Snow |
|---|---|---|---|---|---|---|---|
| 1778114601 | 23.89° C | 97% | 1012.4 hPa | 1.78 mm | - | 0 W/m² | - |
| 1778114298 | 23.89° C | 97% | 1012.5 hPa | 0 mm | - | 0 W/m² | - |
| 1778113994 | 23.89° C | 98% | 1012.9 hPa | 0 mm | - | 0 W/m² | - |
| 1778113689 | 23.89° C | 98% | 1012.1 hPa | 0 mm | - | 0 W/m² | - |
| 1778113386 | 23.89° C | 98% | 1011.8 hPa | 0 mm | - | 0 W/m² | - |
| 1778113083 | 23.89° C | 98% | 1011.9 hPa | 0 mm | - | 0 W/m² | - |
| 1778112780 | 23.89° C | 97% | 1011.7 hPa | 0 mm | - | 1 W/m² | - |
| 1778112476 | 23.89° C | 97% | 1011.9 hPa | 0 mm | - | 2 W/m² | - |
| 1778112172 | 24.44° C | 97% | 1012.5 hPa | 0 mm | - | 1 W/m² | - |
| 1778111869 | 24.44° C | 97% | 1012.3 hPa | 0 mm | - | 1 W/m² | - |
| 1778111565 | 24.44° C | 97% | 1012.2 hPa | 0 mm | - | 1 W/m² | - |
| 1778111262 | 24.44° C | 97% | 1012.6 hPa | 0 mm | - | 2 W/m² | - |
| 1778110960 | 24.44° C | 97% | 1013 hPa | 0 mm | - | 2 W/m² | - |
| 1778110657 | 24.44° C | 97% | 1012.8 hPa | 0 mm | - | 3 W/m² | - |
| 1778110353 | 24.44° C | 96% | 1012.1 hPa | 0 mm | - | 4 W/m² | - |
| 1778110050 | 24.44° C | 96% | 1011.8 hPa | 0 mm | - | 6 W/m² | - |
| 1778109750 | 24.44° C | 96% | 1011.9 hPa | 0 mm | - | 7 W/m² | - |
| 1778109448 | 24.44° C | 97% | 1012.5 hPa | 0 mm | - | 7 W/m² | - |
| 1778109146 | 24.44° C | 96% | 1012.5 hPa | 0 mm | - | 7 W/m² | - |
| 1778108842 | 24.44° C | 96% | 1012.4 hPa | 0 mm | - | 5 W/m² | - |
| 1778108539 | 24.44° C | 96% | 1012.6 hPa | 0 mm | - | 5 W/m² | - |
| 1778108235 | 24.44° C | 96% | 1012.2 hPa | 0 mm | - | 7 W/m² | - |
| 1778107933 | 25° C | 96% | 1012.3 hPa | 0 mm | - | 8 W/m² | - |
| 1778107629 | 25° C | 96% | 1012.4 hPa | 0 mm | - | 11 W/m² | - |
| 1778107327 | 25° C | 96% | 1012.3 hPa | 0 mm | - | 18 W/m² | - |
* Rain latest hour (hover to see other rain measurements)
** Current wind speed in m/s (hover to see current wind gust speed)